Location: Bieujac
(44.5398°N, 0.1549°W)
Time: 16:33:59
(UTC+00:00)

Okean 3 Rocket - Pass Details

Date: 17 November 2019
Orbit: 614 x 646 km, 82.5° (Epoch: 10 December)

Event Time Altitude Azimuth Distance (km) Brightness Sun altitude
Rises 05:03:04 0° 191° (S) 2,939 7.0 -20.6°
Reaches altitude 10° 05:05:19 10° 192° (SSW) 2,031 6.1 -20.2°
Maximum altitude 05:09:49 77° 278° (W) 662 3.5 -19.4°
Drops below altitude 10° 05:14:20 10° 6° (N) 2,030 6.2 -18.6°
Sets 05:16:35 0° 8° (N) 2,938 7.0 -18.2°
